Tracking 25934 objects as of 11-Aug-2022
HD Live streaming from Space Station
objects crossing your sky now

DELTA 2 R/B

Track DELTA 2 R/B now!
10-day predictions


NORAD ID: 33106
Int'l Code: 2008-032B
Perigee: 2,170.0 km
Apogee: 4,365.2 km
Inclination: 65.2 °
Period: 157.0 minutes
Semi major axis: 9638 km
RCS: 10.82 m2 (large)
Launch date: June 20, 2008
Source: United States (US)
Launch site: AIR FORCE WESTERN TEST RANGE (AFWTR)

Note: This is a ROCKET BODY
aabbcc
Your satellite tracking list
Your tracking list is empty




NASA's NSSDC Master Catalog

Two Line Element Set (TLE):
1 33106U 08032B   22222.43181992 -.00000020  00000-0 -67614-4 0  9995
2 33106  65.2384 291.1287 1138747  76.2132  27.9575  9.17447929473703
Source of the keplerian elements: AFSPC